OBJECT E, 65263

Orbit data source: Space-Track

You're viewing an Uncataloged Satellite

Recently launched and/or uncataloged satellites may have evolving metadata. Metadata may include but not limited to: Owner, Maufacturer, Bus, Motor, and Mission.

OBJECT E, 65263 is a Chinese satellite in SSO that was launched on Tue, 19 Aug 2025 UTC via a LIJIAN-1 launch vehicle from the Jiuquan Satellite Launch Center, China (JSC). Unknown objects in Earth's orbit typically refer to objects detected orbiting the Earth but have not yet been identified or cataloged. These objects could be anything from previously untracked satellites, spent rocket stages, debris from satellite collisions, or even natural meteoroids temporarily captured by Earth's gravity.

Loading next visibility...
Identifier
65263, 2025-180E
Orbit
SSO
Country
Flag of CNCN / PRC
Related business
None
Manufacturer
Unknown
Mission
Operational Commercial Imaging
Bus & Motor
Unknown
Mass
Unknown
Launch date (UTC)
2025-08-19 (10 months ago)
Launch vehicle
LIJIAN-1
Launch site
Jiuquan Satellite Launch Center, China (JSC)
Object type
Unknown
Shape & HBR
Box, 1.1 m
Radar Cross Section
0.195 m², Large (>1 m²)

Expand to show TLE details & history
Last TLE update: 7 hours ago

TLE from 7 hours ago
0 OBJECT E
1 65263U 25180E   26171.56845987  .00002306  00000-0  12228-3 0  9996
2 65263  97.4787 298.5766 0001612  88.3946 271.7471 15.16356248 46232
Epoch: 2026-06-20T13:38Z
TLE epoch observation values (Epoch: 2026-06-20T13:38:34.932Z)
Latitude
-0.0001°
Longitude
-174.85015°
Altitude
519.914 km
Speed
7.603 km/s
True Right ascension
19h 54m 18s
True Declination
0° 00' 00"
Sunlit
Object was in full shadow at epoch
Visualization orbit readout
Latitude
Unknown
Longitude
Unknown
Altitude
Unknown
Speed
Unknown
Apparent Right ascension
Unknown
Apparent Declination
Unknown
Sunlit
N/A
Visualization observer readout
Local Sidereal Time
07:18:48
Azimuth
Unknown
Elevation
Unknown
Doppler factor
Unknown
Orbital elements
Apogee altitude
514.949 km
Perigee altitude
512.727 km
Semi-major axis
6,891.975 km
Eccentricity
0.00016
Inclination
97.4787°
RAAN
298.5766°
Arg. of periapsis
88.3946°
True anomaly
271.72864°
Mean anomaly
271.7471°
Eccentric anomaly
271.73787°
Mean motion
3.79339 °/min
Orbital period
94.9 mins
BSTAR
0.00012228
Loading maneuver chart data...
Computing Atmospheric mass density...
Loading historical data...
Loading historical data...
Loading historical data...
Loading historical data...
Loading historical data...
Loading historical data...
Loading historical data...
Other satellites on launch #180 in the year 2025 (2025-08-19 UTC)

Documentation

Showing up to 5 results
|